UAE854 OKKK-OMDB

Flight info

Callsign UAE854
Flight time 1h 17m
Altitude 37000
Route SESRU M677 OBNET/N0477F310 M677 VUTEB
Aircraft B77W/H-SDE1E2E3FGHIJ2J3J4J5M1RWXY/LB1D1

Departure

Time 2026-05-09 15:17
Airport Kuwait International Airport (OKKK)

Arrival

Time 2026-05-09 16:34
Airport Dubai International Airport (OMDB)
Time Latitude Longitude Altitude Speed Heading
2026-05-09 14:40 29.23712 47.97204 171 ft 0 kts 25°
2026-05-09 14:40 29.23711 47.97203 172 ft 0 kts 25°
2026-05-09 15:00 29.23695 47.97195 172 ft 4 kts 25°
2026-05-09 15:00 29.23686 47.97190 171 ft 0 kts 25°
2026-05-09 15:03 29.23688 47.97191 172 ft 3 kts 25°
2026-05-09 15:04 29.23691 47.97192 172 ft 0 kts 25°
2026-05-09 15:04 29.23692 47.97193 172 ft 0 kts 25°
2026-05-09 15:06 29.23697 47.97196 172 ft 1 kts 25°
2026-05-09 15:06 29.23674 47.97183 172 ft 8 kts 25°
2026-05-09 15:06 29.23673 47.97183 171 ft 1 kts 25°
2026-05-09 15:07 29.23674 47.97183 171 ft 0 kts 25°
2026-05-09 15:07 29.23675 47.97184 171 ft 0 kts 25°
2026-05-09 15:08 29.23677 47.97185 171 ft 1 kts 24°
2026-05-09 15:08 29.23689 47.97181 172 ft 2 kts 332°
2026-05-09 15:09 29.23692 47.97163 171 ft 3 kts 265°
2026-05-09 15:10 29.23327 47.97118 171 ft 11 kts 154°
2026-05-09 15:11 29.23261 47.97109 171 ft 11 kts 228°
2026-05-09 15:11 29.23224 47.97029 171 ft 13 kts 245°
2026-05-09 15:11 29.23181 47.96923 170 ft 15 kts 245°
2026-05-09 15:11 29.23117 47.96894 171 ft 10 kts 153°
2026-05-09 15:12 29.23046 47.96936 172 ft 16 kts 155°
2026-05-09 15:12 29.22911 47.97008 172 ft 26 kts 155°
2026-05-09 15:12 29.22747 47.97096 172 ft 24 kts 155°
2026-05-09 15:12 29.22598 47.97175 172 ft 24 kts 155°
2026-05-09 15:13 29.22449 47.97254 172 ft 24 kts 155°
2026-05-09 15:13 29.22300 47.97333 172 ft 24 kts 155°
2026-05-09 15:13 29.22153 47.97412 172 ft 24 kts 155°
2026-05-09 15:13 29.22001 47.97492 171 ft 25 kts 155°
2026-05-09 15:14 29.21834 47.97580 171 ft 27 kts 155°
2026-05-09 15:14 29.21656 47.97675 172 ft 29 kts 155°
2026-05-09 15:14 29.21476 47.97770 174 ft 26 kts 155°
2026-05-09 15:14 29.21342 47.97843 175 ft 16 kts 154°
2026-05-09 15:15 29.21268 47.97843 175 ft 11 kts 220°
2026-05-09 15:15 29.21241 47.97765 175 ft 11 kts 273°
2026-05-09 15:15 29.21275 47.97688 175 ft 11 kts 303°
2026-05-09 15:15 29.21318 47.97615 175 ft 11 kts 310°
2026-05-09 15:16 29.21372 47.97576 174 ft 0 kts 334°
2026-05-09 15:16 29.21381 47.97572 174 ft 9 kts 334°
2026-05-09 15:16 29.21734 47.97385 172 ft 112 kts 335°
2026-05-09 15:16 29.22761 47.96925 481 ft 188 kts 342°
2026-05-09 15:17 29.24060 47.96300 1463 ft 214 kts 335°
2026-05-09 15:17 29.25459 47.95536 2391 ft 236 kts 334°
2026-05-09 15:17 29.27008 47.94655 3064 ft 253 kts 333°
2026-05-09 15:17 29.28597 47.93770 4123 ft 255 kts 335°
2026-05-09 15:18 29.30220 47.92898 4967 ft 259 kts 335°
2026-05-09 15:18 29.31865 47.92028 5856 ft 262 kts 335°
2026-05-09 15:18 29.33568 47.91282 6643 ft 266 kts 348°
2026-05-09 15:18 29.35440 47.91401 7349 ft 279 kts 14°
2026-05-09 15:19 29.37152 47.92519 8102 ft 292 kts 38°
2026-05-09 15:19 29.38427 47.94346 8800 ft 305 kts 57°
2026-05-09 15:19 29.39446 47.96526 9492 ft 314 kts 59°
2026-05-09 15:19 29.40476 47.98791 10189 ft 321 kts 59°
2026-05-09 15:20 29.41550 48.01120 10577 ft 343 kts 59°
2026-05-09 15:20 29.43495 48.06476 10926 ft 395 kts 85°
2026-05-09 15:20 29.43158 48.09634 11503 ft 407 kts 109°
2026-05-09 15:21 29.42097 48.12671 12178 ft 413 kts 114°
2026-05-09 15:21 29.40993 48.15733 13026 ft 421 kts 113°
2026-05-09 15:21 29.39901 48.18870 13951 ft 426 kts 112°
2026-05-09 15:21 29.38820 48.22038 14824 ft 429 kts 112°
2026-05-09 15:22 29.37733 48.25240 15797 ft 430 kts 112°
2026-05-09 15:22 29.36644 48.28441 16727 ft 433 kts 112°
2026-05-09 15:22 29.35545 48.31664 17598 ft 437 kts 112°
2026-05-09 15:22 29.34429 48.34933 18420 ft 442 kts 112°
2026-05-09 15:23 29.33297 48.38246 19106 ft 448 kts 112°
2026-05-09 15:23 29.32156 48.41581 19736 ft 455 kts 112°
2026-05-09 15:23 29.30991 48.44983 20385 ft 462 kts 112°
2026-05-09 15:23 29.29810 48.48432 21041 ft 468 kts 112°
2026-05-09 15:24 29.28613 48.51923 21713 ft 474 kts 112°
2026-05-09 15:24 29.27400 48.55457 22357 ft 479 kts 112°
2026-05-09 15:24 29.26187 48.58986 22972 ft 485 kts 112°
2026-05-09 15:24 29.24944 48.62601 23550 ft 492 kts 112°
2026-05-09 15:25 29.23683 48.66265 24067 ft 497 kts 112°
2026-05-09 15:25 29.22409 48.69963 24625 ft 501 kts 113°
2026-05-09 15:25 29.21127 48.73676 25208 ft 504 kts 114°
2026-05-09 15:26 29.17736 48.80715 26314 ft 506 kts 129°
2026-05-09 15:26 29.15555 48.83874 26850 ft 508 kts 134°
2026-05-09 15:26 29.13093 48.86772 27373 ft 509 kts 139°
2026-05-09 15:26 29.10543 48.89602 27881 ft 512 kts 140°
2026-05-09 15:27 29.07973 48.92452 28388 ft 516 kts 139°
2026-05-09 15:27 29.05392 48.95330 28882 ft 520 kts 139°
2026-05-09 15:27 29.02808 48.98229 29351 ft 523 kts 139°
2026-05-09 15:27 29.00209 49.01160 29795 ft 527 kts 139°
2026-05-09 15:28 28.97596 49.04114 30177 ft 529 kts 139°
2026-05-09 15:28 28.94983 49.07069 30701 ft 527 kts 139°
2026-05-09 15:28 28.92394 49.10000 31401 ft 521 kts 140°
2026-05-09 15:28 28.89833 49.12896 32093 ft 515 kts 140°
2026-05-09 15:29 28.87294 49.15760 32710 ft 511 kts 141°
2026-05-09 15:29 28.84769 49.18604 33270 ft 509 kts 141°
2026-05-09 15:29 28.82261 49.21424 33790 ft 506 kts 141°
2026-05-09 15:29 28.79756 49.24239 34206 ft 505 kts 142°
2026-05-09 15:30 28.77244 49.27059 34554 ft 505 kts 142°
2026-05-09 15:30 28.74742 49.29865 34876 ft 505 kts 143°
2026-05-09 15:30 28.72271 49.32638 35211 ft 505 kts 143°
2026-05-09 15:30 28.69766 49.35447 35560 ft 505 kts 144°
2026-05-09 15:31 28.67266 49.38251 35923 ft 504 kts 144°
2026-05-09 15:31 28.64772 49.41045 36281 ft 502 kts 145°
2026-05-09 15:31 28.62319 49.43882 36667 ft 505 kts 142°
2026-05-09 15:31 28.60059 49.46965 36983 ft 513 kts 137°
2026-05-09 15:32 28.58005 49.50358 36929 ft 528 kts 130°
2026-05-09 15:32 28.56113 49.53961 36960 ft 533 kts 130°
2026-05-09 15:32 28.52364 49.61247 36936 ft 533 kts 130°
2026-05-09 15:33 28.48574 49.68435 36939 ft 527 kts 131°
2026-05-09 15:33 28.44764 49.75544 36935 ft 524 kts 133°
2026-05-09 15:34 28.42652 49.78850 36929 ft 511 kts 141°
2026-05-09 15:34 28.40253 49.81773 36946 ft 501 kts 147°
2026-05-09 15:34 28.34947 49.86583 36935 ft 484 kts 157°
2026-05-09 15:35 28.29279 49.90800 36935 ft 485 kts 158°
2026-05-09 15:35 28.23664 49.94996 36939 ft 488 kts 157°
2026-05-09 15:36 28.18000 49.99273 36913 ft 490 kts 156°
2026-05-09 15:36 28.12338 50.03565 36941 ft 490 kts 156°
2026-05-09 15:37 28.06657 50.07865 36930 ft 491 kts 156°
2026-05-09 15:37 28.00973 50.12160 36910 ft 491 kts 156°
2026-05-09 15:38 27.95299 50.16440 36931 ft 490 kts 156°
2026-05-09 15:38 27.89622 50.20717 36924 ft 490 kts 156°
2026-05-09 15:39 27.83948 50.24985 36925 ft 489 kts 156°
2026-05-09 15:39 27.78285 50.29240 36919 ft 488 kts 156°
2026-05-09 15:40 27.72674 50.33451 36924 ft 488 kts 156°
2026-05-09 15:40 27.67022 50.37688 36930 ft 487 kts 156°
2026-05-09 15:41 27.61376 50.41922 36921 ft 487 kts 155°
2026-05-09 15:41 27.55780 50.46236 36925 ft 488 kts 155°
2026-05-09 15:42 27.50184 50.50576 36932 ft 488 kts 155°
2026-05-09 15:42 27.44585 50.54888 36923 ft 488 kts 155°
2026-05-09 15:43 27.38964 50.59184 36928 ft 488 kts 155°
2026-05-09 15:43 27.33337 50.63469 36923 ft 488 kts 155°
2026-05-09 15:44 27.27708 50.67757 36899 ft 489 kts 155°
2026-05-09 15:44 27.22085 50.72038 36920 ft 489 kts 155°
2026-05-09 15:45 27.16492 50.76311 36911 ft 491 kts 153°
2026-05-09 15:45 27.11270 50.81417 36930 ft 504 kts 143°
2026-05-09 15:46 27.06392 50.87097 36914 ft 505 kts 143°
2026-05-09 15:46 27.01491 50.92724 36920 ft 507 kts 140°
2026-05-09 15:47 26.97213 50.99139 36914 ft 521 kts 129°
2026-05-09 15:47 26.93475 51.06118 36892 ft 522 kts 129°
2026-05-09 15:48 26.89686 51.13027 36907 ft 520 kts 129°
2026-05-09 15:48 26.86331 51.20295 36917 ft 532 kts 118°
2026-05-09 15:49 26.83950 51.28197 36921 ft 536 kts 114°
2026-05-09 15:49 26.81671 51.36143 36904 ft 536 kts 115°
2026-05-09 15:50 26.79326 51.44071 36903 ft 536 kts 115°
2026-05-09 15:50 26.77353 51.50640 36909 ft 536 kts 115°
2026-05-09 15:51 26.74975 51.58553 36896 ft 537 kts 115°
2026-05-09 15:51 26.72594 51.66466 36902 ft 537 kts 115°
2026-05-09 15:52 26.68984 51.78359 36882 ft 538 kts 115°
2026-05-09 15:53 26.66588 51.86281 36888 ft 538 kts 115°
2026-05-09 15:53 26.64151 51.94198 36899 ft 538 kts 116°
2026-05-09 15:54 26.61584 52.02049 36892 ft 538 kts 117°
2026-05-09 15:54 26.58992 52.09893 36889 ft 538 kts 116°
2026-05-09 15:55 26.56433 52.17692 36875 ft 538 kts 116°
2026-05-09 15:55 26.53863 52.25550 36887 ft 537 kts 116°
2026-05-09 15:56 26.51298 52.33378 36882 ft 537 kts 116°
2026-05-09 15:56 26.48722 52.41214 36883 ft 536 kts 116°
2026-05-09 15:57 26.46147 52.49030 36875 ft 536 kts 116°
2026-05-09 15:57 26.43573 52.56829 36868 ft 535 kts 116°
2026-05-09 15:58 26.40997 52.64623 36871 ft 535 kts 116°
2026-05-09 15:58 26.38447 52.72412 36867 ft 535 kts 116°
2026-05-09 15:59 26.35896 52.80208 36865 ft 535 kts 116°
2026-05-09 15:59 26.33329 52.87934 36864 ft 535 kts 116°
2026-05-09 16:00 26.30724 52.95690 36563 ft 534 kts 116°
2026-05-09 16:00 26.29839 52.98321 36025 ft 538 kts 116°
2026-05-09 16:00 26.28105 53.03481 35119 ft 536 kts 116°
2026-05-09 16:00 26.26808 53.07351 34601 ft 530 kts 116°
2026-05-09 16:01 26.25522 53.11187 34046 ft 526 kts 116°
2026-05-09 16:01 26.24246 53.14983 33454 ft 523 kts 116°
2026-05-09 16:01 26.22975 53.18759 32894 ft 518 kts 116°
2026-05-09 16:01 26.21713 53.22502 32338 ft 514 kts 116°
2026-05-09 16:02 26.20461 53.26213 31808 ft 510 kts 116°
2026-05-09 16:02 26.17958 53.33549 30770 ft 500 kts 118°
2026-05-09 16:02 26.16598 53.37023 30356 ft 493 kts 120°
2026-05-09 16:03 26.15177 53.40512 29929 ft 487 kts 120°
2026-05-09 16:03 26.13790 53.43873 29450 ft 481 kts 120°
2026-05-09 16:03 26.12402 53.47237 29004 ft 475 kts 120°
2026-05-09 16:03 26.11039 53.50559 28582 ft 469 kts 120°
2026-05-09 16:04 26.09699 53.53840 28170 ft 463 kts 120°
2026-05-09 16:04 26.08375 53.57087 27778 ft 458 kts 120°
2026-05-09 16:04 26.07068 53.60296 27380 ft 454 kts 120°
2026-05-09 16:04 26.05768 53.63484 26998 ft 450 kts 120°
2026-05-09 16:05 26.04478 53.66645 26613 ft 447 kts 120°
2026-05-09 16:05 26.03197 53.69783 26231 ft 444 kts 119°
2026-05-09 16:05 26.01924 53.72896 25848 ft 441 kts 119°
2026-05-09 16:05 26.00661 53.75988 25466 ft 438 kts 119°
2026-05-09 16:06 25.99431 53.79078 25093 ft 436 kts 118°
2026-05-09 16:06 25.98226 53.82163 24876 ft 434 kts 118°
2026-05-09 16:06 25.97023 53.85250 24864 ft 436 kts 118°
2026-05-09 16:06 25.95813 53.88345 24860 ft 438 kts 118°
2026-05-09 16:07 25.94596 53.91448 24845 ft 437 kts 118°
2026-05-09 16:07 25.93384 53.94533 24559 ft 434 kts 118°
2026-05-09 16:07 25.92178 53.97595 24159 ft 431 kts 118°
2026-05-09 16:07 25.90948 54.00616 23737 ft 427 kts 120°
2026-05-09 16:08 25.89665 54.03514 23232 ft 418 kts 121°
2026-05-09 16:08 25.88363 54.06376 22409 ft 413 kts 121°
2026-05-09 16:08 25.87073 54.09212 21565 ft 410 kts 121°
2026-05-09 16:08 25.85809 54.12021 20750 ft 405 kts 120°
2026-05-09 16:09 25.84563 54.14815 20029 ft 400 kts 120°
2026-05-09 16:09 25.83344 54.17555 19341 ft 394 kts 120°
2026-05-09 16:09 25.82142 54.20280 18716 ft 390 kts 118°
2026-05-09 16:09 25.81141 54.23074 18377 ft 389 kts 112°
2026-05-09 16:10 25.80272 54.25909 17952 ft 387 kts 111°
2026-05-09 16:10 25.79418 54.28734 17549 ft 385 kts 111°
2026-05-09 16:10 25.78569 54.31537 17165 ft 382 kts 111°
2026-05-09 16:10 25.77732 54.34281 16803 ft 378 kts 111°
2026-05-09 16:11 25.76876 54.37068 16432 ft 375 kts 111°
2026-05-09 16:11 25.76034 54.39799 16072 ft 373 kts 111°
2026-05-09 16:11 25.75196 54.42509 15718 ft 371 kts 110°
2026-05-09 16:11 25.74360 54.45208 15367 ft 369 kts 111°
2026-05-09 16:12 25.73535 54.47869 15022 ft 369 kts 110°
2026-05-09 16:12 25.72686 54.50604 14664 ft 370 kts 110°
2026-05-09 16:12 25.71858 54.53269 14318 ft 370 kts 109°
2026-05-09 16:12 25.71024 54.55956 13965 ft 369 kts 109°
2026-05-09 16:13 25.70193 54.58629 13696 ft 365 kts 109°
2026-05-09 16:13 25.69363 54.61285 13346 ft 363 kts 109°
2026-05-09 16:13 25.68522 54.63919 12996 ft 361 kts 110°
2026-05-09 16:13 25.67683 54.66532 12645 ft 359 kts 110°
2026-05-09 16:14 25.66845 54.69137 12301 ft 358 kts 110°
2026-05-09 16:14 25.66013 54.71728 11961 ft 356 kts 110°
2026-05-09 16:14 25.65186 54.74302 11624 ft 353 kts 110°
2026-05-09 16:14 25.64368 54.76851 11283 ft 349 kts 110°
2026-05-09 16:15 25.63576 54.79319 10940 ft 331 kts 110°
2026-05-09 16:15 25.62824 54.81662 10622 ft 314 kts 110°
2026-05-09 16:15 25.62098 54.83918 10323 ft 309 kts 111°
2026-05-09 16:15 25.61380 54.86153 10079 ft 305 kts 112°
2026-05-09 16:16 25.60612 54.88293 10042 ft 294 kts 115°
2026-05-09 16:16 25.59789 54.90361 9999 ft 291 kts 116°
2026-05-09 16:16 25.58968 54.92398 9993 ft 288 kts 116°
2026-05-09 16:16 25.58160 54.94416 9991 ft 286 kts 116°
2026-05-09 16:17 25.57351 54.96450 9995 ft 290 kts 115°
2026-05-09 16:17 25.56544 54.98495 9991 ft 291 kts 116°
2026-05-09 16:17 25.55735 55.00543 9991 ft 289 kts 116°
2026-05-09 16:17 25.54943 55.02558 9992 ft 288 kts 117°
2026-05-09 16:18 25.54088 55.04549 9992 ft 285 kts 122°
2026-05-09 16:18 25.53090 55.06481 9944 ft 286 kts 123°
2026-05-09 16:18 25.52087 55.08359 9807 ft 287 kts 124°
2026-05-09 16:18 25.51064 55.10284 9663 ft 285 kts 124°
2026-05-09 16:19 25.50083 55.12149 9504 ft 283 kts 123°
2026-05-09 16:19 25.49100 55.14031 9338 ft 283 kts 124°
2026-05-09 16:19 25.48113 55.15925 9218 ft 284 kts 123°
2026-05-09 16:19 25.47122 55.17829 9051 ft 285 kts 123°
2026-05-09 16:20 25.46130 55.19727 8905 ft 284 kts 125°
2026-05-09 16:20 25.44956 55.21448 8752 ft 280 kts 135°
2026-05-09 16:20 25.43632 55.23027 8608 ft 279 kts 137°
2026-05-09 16:20 25.42292 55.24592 8461 ft 280 kts 137°
2026-05-09 16:21 25.40964 55.26170 8323 ft 280 kts 136°
2026-05-09 16:21 25.39651 55.27758 8192 ft 280 kts 136°
2026-05-09 16:21 25.38345 55.29353 8082 ft 278 kts 135°
2026-05-09 16:21 25.37057 55.30932 8025 ft 276 kts 135°
2026-05-09 16:22 25.35759 55.32490 7989 ft 274 kts 140°
2026-05-09 16:22 25.34202 55.33702 7877 ft 275 kts 155°
2026-05-09 16:22 25.32501 55.34678 7749 ft 276 kts 157°
2026-05-09 16:22 25.30785 55.35621 7605 ft 275 kts 157°
2026-05-09 16:23 25.29085 55.36568 7459 ft 270 kts 156°
2026-05-09 16:23 25.27436 55.37503 7283 ft 263 kts 156°
2026-05-09 16:23 25.25857 55.38411 7121 ft 255 kts 156°
2026-05-09 16:23 25.24297 55.39316 6958 ft 252 kts 156°
2026-05-09 16:24 25.22740 55.40222 6821 ft 253 kts 156°
2026-05-09 16:24 25.21169 55.41139 6636 ft 258 kts 155°
2026-05-09 16:24 25.19565 55.42075 6423 ft 262 kts 155°
2026-05-09 16:24 25.17955 55.43018 6194 ft 261 kts 155°
2026-05-09 16:25 25.16358 55.43953 5946 ft 258 kts 155°
2026-05-09 16:25 25.14784 55.44874 5695 ft 255 kts 155°
2026-05-09 16:25 25.13217 55.45789 5429 ft 253 kts 155°
2026-05-09 16:25 25.11668 55.46717 5063 ft 253 kts 148°
2026-05-09 16:26 25.10462 55.48138 4576 ft 257 kts 120°
2026-05-09 16:26 25.09567 55.49854 4187 ft 259 kts 121°
2026-05-09 16:26 25.08638 55.51544 3938 ft 256 kts 121°
2026-05-09 16:26 25.07712 55.53207 3669 ft 254 kts 121°
2026-05-09 16:27 25.06793 55.54855 3459 ft 248 kts 121°
2026-05-09 16:27 25.05914 55.56441 3340 ft 236 kts 117°
2026-05-09 16:27 25.05502 55.58125 3093 ft 224 kts 83°
2026-05-09 16:27 25.05963 55.59683 2770 ft 210 kts 47°
2026-05-09 16:28 25.07060 55.60606 2385 ft 195 kts
2026-05-09 16:28 25.08307 55.60576 2197 ft 172 kts 334°
2026-05-09 16:28 25.09412 55.60048 2139 ft 178 kts 332°
2026-05-09 16:28 25.10565 55.59496 2097 ft 182 kts 332°
2026-05-09 16:29 25.11723 55.58941 2036 ft 181 kts 332°
2026-05-09 16:29 25.12795 55.58265 1993 ft 176 kts 311°
2026-05-09 16:29 25.13542 55.57204 2015 ft 177 kts 308°
2026-05-09 16:29 25.14296 55.56119 2008 ft 180 kts 305°
2026-05-09 16:30 25.15000 55.54972 2003 ft 181 kts 302°
2026-05-09 16:30 25.15666 55.53808 1988 ft 175 kts 302°
2026-05-09 16:30 25.16273 55.52720 2000 ft 158 kts 301°
2026-05-09 16:30 25.16820 55.51732 1980 ft 145 kts 302°
2026-05-09 16:31 25.17340 55.50793 1983 ft 143 kts 301°
2026-05-09 16:31 25.17859 55.49855 1988 ft 143 kts 301°
2026-05-09 16:31 25.18384 55.48908 1867 ft 147 kts 301°
2026-05-09 16:31 25.18910 55.47958 1683 ft 142 kts 301°
2026-05-09 16:32 25.19416 55.47045 1522 ft 138 kts 302°
2026-05-09 16:32 25.19750 55.46439 1415 ft 142 kts 302°
2026-05-09 16:32 25.20450 55.45176 1160 ft 144 kts 301°
2026-05-09 16:32 25.20964 55.44249 976 ft 141 kts 300°
2026-05-09 16:33 25.21498 55.43283 811 ft 153 kts 300°
2026-05-09 16:33 25.22076 55.42238 638 ft 163 kts 298°
2026-05-09 16:33 25.22652 55.41198 388 ft 155 kts 300°
2026-05-09 16:33 25.23207 55.40191 203 ft 152 kts 297°
2026-05-09 16:34 25.23750 55.39200 36 ft 149 kts 298°
2026-05-09 16:34 25.24233 55.38324 31 ft 114 kts 301°
2026-05-09 16:34 25.24562 55.37733 27 ft 70 kts 302°
2026-05-09 16:34 25.24757 55.37369 28 ft 34 kts 289°
2026-05-09 16:35 25.24780 55.37149 28 ft 21 kts 271°
2026-05-09 16:35 25.24782 55.37097 28 ft 0 kts 271°
2026-05-09 16:35 25.24782 55.37085 28 ft 5 kts 271°
2026-05-09 16:35 25.24783 55.37014 27 ft 9 kts 269°
2026-05-09 16:36 25.24762 55.36955 26 ft 9 kts 224°
2026-05-09 16:36 25.24615 55.36857 30 ft 6 kts 211°
2026-05-09 16:37 25.24580 55.36834 29 ft 3 kts 211°
2026-05-09 16:37 25.24562 55.36826 28 ft 3 kts 188°
2026-05-09 16:37 25.24549 55.36830 30 ft 3 kts 159°
2026-05-09 16:37 25.24529 55.36854 26 ft 3 kts 124°
2026-05-09 16:38 25.24520 55.36869 28 ft 4 kts 123°
2026-05-09 16:38 25.24505 55.36897 32 ft 3 kts 121°
2026-05-09 16:38 25.24499 55.36907 30 ft 2 kts 122°
2026-05-09 16:38 25.24497 55.36910 30 ft 0 kts 122°